Location: Laverne
(36.7100°N, 99.8930°W)
Time: 00:36:32
(UTC-05:00)

Daily predictions for brighter satellites

Satellite Brightness Start Highest point End
(mag) Time Altitude Azimuth Time Altitude Azimuth Time Altitude Azimuth
Cosmos 1125 Rocket 4.2 00:03:57 34° SW 00:05:55 52° WNW 00:11:07 10° N
Cosmos 1048 Rocket 3.9 00:03:03 10° NNW 00:08:27 90° WNW 00:08:41 83° SSE
Spot 4 3.9 00:08:33 68° WSW 00:08:36 68° WSW 00:13:26 10° NNW
NOSS 2-3 (D) 4.1 00:08:30 55° WSW 00:09:27 69° NW 00:14:56 10° NNE
Cosmos 2221 Rocket 3.8 00:04:56 10° N 00:09:02 72° NNW 00:09:02 72° NNW
Cosmos 158 Rocket 4.5 00:05:25 10° N 00:10:26 46° ENE 00:10:26 46° ENE
Cosmos 2074 Rocket 4.1 00:10:28 54° ESE 00:10:53 55° E 00:17:01 10° NNE
Cosmos 389 Rocket 4.3 00:10:24 10° N 00:12:16 29° N 00:12:16 29° N
Cosmos 1709 Rocket 4.3 00:12:21 41° SW 00:14:14 58° W 00:20:16 10° N
Cosmos 372 Rocket 4.0 00:16:09 68° WSW 00:16:33 73° WNW 00:21:48 10° NNE
OAO 2 Rocket 4.1 00:13:14 10° W 00:16:59 44° WSW 00:16:59 44° WSW
Cosmos 2237 Rocket 3.4 00:14:24 10° NW 00:19:15 29° WSW 00:20:07 28° WSW
Cosmos 2327 Rocket 4.5 00:19:21 63° ESE 00:19:51 66° E 00:26:12 10° NNE
Meteor 1-26 Rocket 4.1 00:22:58 10° N 00:28:39 84° W 00:28:49 82° SW
H-2A R/B 4.5 00:26:36 10° NE 00:28:27 21° NE 00:28:27 21° NE
Cosmos 44 3.7 00:33:29 64° NE 00:33:29 64° NE 00:38:06 10° NNE
In-Cosmos 22 Rocket 4.2 00:37:33 74° WSW 00:37:47 75° W 00:43:34 10° N
Cosmos 2154 Rocket 4.4 00:44:36 49° E 00:44:36 49° E 00:50:27 10° NNE
Cosmos 1733 Rocket 4.3 00:46:56 38° NNE 00:46:56 38° NNE 00:49:49 10° NNE
Meteor 2-10 Rocket 3.9 00:40:15 10° N 00:45:39 62° ENE 00:45:39 62° ENE
ATLAS 3B R/B 3.0 00:41:13 10° NW 00:47:44 47° WSW 00:47:56 47° WSW
Meteor 2-3 Rocket 3.9 00:51:08 63° W 00:51:20 63° W 00:57:01 10° N
Cosmos 2263 Rocket 3.5 00:54:57 28° ENE 00:54:57 28° ENE 00:58:22 10° NE
Cosmos 2184 Rocket 4.0 00:55:10 63° WSW 00:55:40 66° W 01:01:50 10° N
BREEZE-M DEB (TANK) 4.2 00:51:19 10° NW 00:58:14 32° N 00:59:04 29° NE
CZ-4C R/B 3.2 00:56:31 10° NNW 01:03:35 57° NE 01:05:36 45° ESE
USA 238 DEB 3.6 00:58:32 10° NW 01:05:34 79° WSW 01:05:55 76° SSW
USA 238 3.6 00:58:38 10° NW 01:05:40 79° WSW 01:06:02 77° SSW
ALOS 2 3.7 01:11:54 41° N 01:11:54 41° N 01:14:50 10° N
Meteor 1-10 Rocket 4.3 01:04:58 10° N 01:10:39 79° NNE 01:10:39 79° NNE
CZ-2C R/B 3.9 01:09:32 10° NNE 01:12:53 30° ENE 01:12:53 30° ENE
SL-16 R/B 3.9 01:10:39 10° NW 01:14:25 22° W 01:14:25 22° W
Cosmos 962 Rocket 4.5 01:18:42 70° ENE 01:18:42 70° ENE 01:24:28 10° N
MOS 1-B Rocket 4.4 01:18:55 46° ENE 01:18:58 46° ENE 01:24:17 10° N
SeaSat 1 3.0 01:20:10 54° NW 01:20:10 54° NW 01:23:58 10° NNW
Cosmos 2341 Rocket 3.9 01:22:33 79° E 01:22:33 79° E 01:28:51 10° N
Lacrosse 4 Rocket 4.3 01:21:34 10° WNW 01:21:37 10° WNW 01:21:37 10° WNW
ASTEX 1 4.1 01:19:18 10° N 01:23:08 50° NNW 01:23:08 50° NNW
CZ-4B R/B 4.3 01:37:27 16° NNW 01:37:27 16° NNW 01:38:13 10° NNW
Cosmos 1943 3.4 01:29:54 10° NNW 01:34:59 69° NNE 01:34:59 69° NNE
NOSS 3-2 (C) 4.2 01:31:44 10° NNW 01:39:17 67° NE 01:41:26 49° ESE
Cosmos 2218 Rocket 4.4 01:41:06 52° E 01:41:06 52° E 01:47:05 10° NNE
Cosmos 1607 4.4 01:42:11 10° NW 01:47:05 48° W 01:47:05 48° W
Cosmos 2366 rocket 4.3 01:50:30 53° E 01:50:30 53° E 01:56:19 10° NNE
Cosmos 1975 Rocket 4.5 01:46:18 10° N 01:49:00 36° NNE 01:49:00 36° NNE
Cosmos 1867 3.9 01:49:55 10° NNW 01:54:42 63° N 01:54:42 63° N
NOSS 3-4 (A) 4.0 01:58:06 49° W 01:59:07 54° NW 02:05:33 10° NNE
NOSS 3-4 (C) 3.9 01:58:14 50° W 01:59:12 54° NW 02:05:39 10° NNE
NOSS 3-2 (A) 3.8 01:52:38 10° NW 02:00:16 81° WSW 02:01:08 72° S
Meteor 1-27 Rocket 4.2 01:57:16 10° NNW 02:02:13 54° WNW 02:02:13 54° WNW
CZ-2C R/B 3.5 02:03:48 64° ENE 02:03:48 64° ENE 02:09:10 10° N
RESURS DK-1 4.1 02:07:11 31° N 02:07:11 31° N 02:09:32 10° NNE
Cosmos 864 Rocket 4.4 02:09:10 73° E 02:09:10 73° E 02:15:11 10° N
GEOS 3 Rocket 4.4 02:11:25 43° WNW 02:11:25 43° WNW 02:15:02 10° NW
BREEZE-M DEB (TANK) 4.1 02:04:03 10° WNW 02:17:03 74° NNE 02:18:01 59° E
Cosmos 1727 Rocket 4.0 02:11:23 10° N 02:17:34 68° E 02:17:47 67° E
Meteor 1-14 Rocket 4.3 02:18:06 75° ENE 02:18:06 75° ENE 02:23:42 10° NNE
Cosmos 1190 Rocket 4.4 02:22:24 10° N 02:27:16 56° NE 02:27:16 56° NE
Cosmos 1844 Rocket 3.3 02:33:05 47° E 02:33:05 47° E 02:38:05 10° NNE
Cosmos 2263 Rocket 3.4 02:36:38 31° WNW 02:37:12 32° WNW 02:42:15 10° N
Cosmos 2056 Rocket 3.9 02:37:52 57° NW 02:37:52 57° NW 02:42:32 10° N
Cosmos 407 Rocket 3.8 02:34:06 10° N 02:39:07 58° ENE 02:39:07 58° ENE
Meteor 1-20 Rocket 4.4 02:42:52 62° ESE 02:43:00 62° E 02:48:42 10° NNE
Meteor 1-18 Rocket 4.3 02:37:31 10° N 02:43:13 69° E 02:43:28 68° E
Gbstr 26 Del rocket 4.2 02:51:47 37° NNE 02:51:47 37° NNE 02:54:18 10° NE
ATLAS 5 CENTAUR R/B 4.4 02:47:06 10° N 02:51:56 25° NE 02:57:01 10° E
CZ-4C R/B 3.9 02:45:41 10° NW 02:50:45 29° W 02:50:45 29° W
Meteor 2-19 Rocket 4.4 02:51:47 71° W 02:52:02 72° W 02:58:13 10° N
Cosmos 676 Rocket 4.4 02:47:03 10° N 02:52:09 56° ENE 02:52:27 55° E
Cosmos 1844 4.0 02:53:34 54° ESE 02:53:35 54° ESE 02:59:10 10° NNE
CZ-2C R/B 4.0 02:50:11 10° NNW 02:54:20 25° WNW 02:54:24 25° WNW
Iridium 4 Rocket 3.5 02:49:36 10° N 02:54:06 75° N 02:54:06 75° N
Cosmos 2278 Rocket 2.8 03:04:33 43° ESE 03:04:57 43° ESE 03:10:18 10° NE
Meteor 1-11 Rocket 4.5 03:06:16 41° SE 03:07:28 47° E 03:13:09 10° NNE
CENTAUR R/B 3.2 03:02:46 10° NNW 03:10:41 72° ENE 03:18:09 14° SE
GP-B 3.7 03:06:35 10° NNE 03:10:39 52° ENE 03:10:39 52° ENE
Cosmos 1821 Rocket 4.0 03:14:15 59° SSE 03:15:31 78° E 03:21:55 10° N
Cosmos 1954 Rocket 4.0 03:11:11 10° NNW 03:16:21 73° ENE 03:16:51 67° ESE
COSMOS 2406 3.3 03:11:45 10° NNW 03:17:10 60° W 03:17:10 60° W
Meteor 2-21 4.3 03:17:10 64° SSE 03:18:10 82° E 03:24:17 10° N
Cosmos 1400 Rocket 4.5 03:21:17 25° E 03:21:17 25° E 03:24:30 10° NE
Cosmos 1300 Rocket 4.1 03:22:51 51° NW 03:22:51 51° NW 03:26:25 10° N
Okean 1 4.3 03:19:16 10° NNW 03:22:02 42° NNW 03:22:02 42° NNW
Cosmos 1602 4.4 03:27:55 51° NE 03:27:55 51° NE 03:31:02 10° NNE
Cosmos 724 4.3 03:21:37 10° NW 03:27:40 61° WSW 03:27:57 60° SW
SL-16 R/B 4.3 03:24:20 10° ESE 03:29:28 28° ENE 03:34:36 10° N
Cosmos 1461 3.1 03:33:54 73° NW 03:33:54 73° NW 03:38:30 10° NNE
NPP 3.5 03:29:21 10° NNE 03:34:45 85° WNW 03:35:31 67° SSW
USA 161 3.9 03:39:47 22° ENE 03:39:47 22° ENE 03:42:01 10° NNE
Cosmos 1452 Rocket 4.3 03:42:27 35° W 03:43:01 36° WNW 03:47:51 10° N
Meteor 2-4 Rocket 4.3 03:40:38 10° N 03:45:52 51° ENE 03:48:47 25° SE
CZ-2D R/B 3.6 03:41:13 10° NE 03:45:58 30° E 03:48:54 19° SE
ERS-2 2.5 03:42:24 10° N 03:45:34 62° N 03:45:34 62° N
ARIANE 5 R/B 3.5 03:41:33 10° NNE 03:46:14 39° E 03:48:01 29° SE
Cosmos 1892 Rocket 4.4 03:43:42 10° N 03:47:53 45° E 03:49:16 33° SE
Cosmos 1420 Rocket 4.1 03:49:19 55° WSW 03:50:07 62° WNW 03:55:23 10° N
Cosmos 1315 Rocket 4.0 03:51:55 32° ESE 03:52:46 36° E 03:56:29 10° NNE
Cosmos 1356 3.8 03:53:28 62° ENE 03:53:28 62° ENE 03:56:40 10° NNE
SL-08 R/B 3.3 03:53:07 61° SW 03:53:35 65° W 03:58:27 10° NNW
NOSS 2-2 (D) 4.4 03:56:06 34° WNW 03:56:39 36° NW 04:01:00 10° NNE
CBERS-1 4.1 03:52:27 10° N 03:57:31 60° WNW 03:58:30 50° WSW
Cosmos 1140 Rocket 3.3 03:52:32 10° NNW 03:57:38 70° WSW 03:58:37 55° SSW
IRS-1C 4.1 03:57:18 10° N 04:02:37 69° WNW 04:04:02 48° SW
AQUA 4.2 04:02:23 10° N 04:06:56 45° WNW 04:07:40 42° W
UNKNOWN OBJECT B 4.4 04:09:14 10° NE 04:12:53 30° E 04:14:56 20° SE
COSMOS 2487 3.7 04:11:24 10° NNW 04:13:44 31° WNW 04:13:44 31° WNW
Resurs 1-4 Rocket 2.5 04:11:10 10° NNE 04:16:25 58° E 04:19:20 26° S
Cosmos 1844 Rocket 4.3 04:14:45 19° W 04:16:47 22° WNW 04:21:10 10° N
ADEOS 3.8 04:14:21 10° N 04:19:28 56° WNW 04:21:12 38° SW
Cosmos 1633 3.2 04:20:18 39° WNW 04:20:18 39° WNW 04:23:34 10° N
Cosmos 1536 3.5 04:20:02 37° W 04:20:12 37° W 04:24:00 10° N
NOSS 5 (C) 4.1 04:22:18 79° W 04:22:25 80° WNW 04:25:31 10° NNE
Cosmos 1025 Rocket 3.4 04:18:36 10° NNW 04:22:40 41° W 04:22:58 41° WSW
Cosmos 1850 Rocket 4.2 04:21:30 10° NNW 04:26:33 49° WSW 04:28:21 35° SSW
EO 1 Del DPAF 3.5 04:27:27 23° SSE 04:29:45 71° ENE 04:33:38 10° N
Cosmos 1447 Rocket 4.4 04:24:30 10° N 04:30:39 77° W 04:35:00 20° S
Cosmos 1741 Rocket 4.3 04:25:51 10° NNW 04:30:52 46° WSW 04:32:42 33° SSW
Okean 2 3.3 04:27:51 10° NNW 04:31:57 69° W 04:33:22 38° SSW
Cosmos 1455 Rocket 3.1 04:30:38 40° SSW 04:32:05 65° W 04:36:31 10° N
Cosmos 1626 Rocket 4.3 04:29:43 10° N 04:34:01 51° E 04:38:18 10° SSE
OAO 3 Copernicus 4.2 04:33:26 27° W 04:36:08 74° S 04:41:09 10° E
ATLAS 5 CENTAUR R/B 2.4 04:31:01 10° NW 04:37:05 64° WSW 04:43:28 10° SSE
PSLV R/B 3.4 04:36:56 51° SSW 04:37:24 58° SSE 04:40:44 10° ENE
Okean O Rocket 3.0 04:34:45 10° NNE 04:38:43 34° E 04:42:32 11° SSE
Cosmos 1302 Rocket 4.5 04:37:32 19° S 04:41:07 56° ESE 04:46:14 10° NNE
Atlas Centaur 2 4.2 04:40:34 19° SSW 04:44:39 27° SSE 04:51:29 10° E
MTI 4.2 04:43:19 16° SSE 04:45:48 64° ENE 04:49:04 10° N
ATLAS 2A CENTAUR R/B 4.1 04:42:21 22° SW 04:47:39 41° S 05:27:01 10° ESE
Timation 2 Rocket 4.0 04:43:03 10° NNW 04:48:55 52° WSW 04:54:40 10° S
Cosmos 2278 Rocket 3.6 04:46:24 17° W 04:49:11 25° WNW 04:53:47 10° N
UNK 3.7 04:46:10 18° S 04:49:32 68° WSW 04:54:11 10° NNW
USA 234 3.2 04:44:20 10° SSE 04:50:46 61° SW 04:57:14 10° NW
Timation 1 Rocket 4.4 04:48:17 20° SSW 04:52:32 80° ESE 04:58:34 10° NNE
Cosmos 2297 4.3 04:49:40 24° WSW 04:52:42 44° WNW 04:58:08 10° N
Cosmos 2061 Rocket 4.0 04:48:53 18° SSW 04:53:45 77° W 05:00:11 10° N
BREEZE-M DEB 4.0 04:55:15 42° SSE 04:55:32 45° SE 04:58:09 10° ENE
Cosmos 1400 Rocket 4.5 04:56:57 17° W 04:57:44 18° WNW 05:00:28 10° NNW
IRS-1D 4.1 04:55:41 10° N 05:00:23 41° WNW 05:03:13 21° SW
CENTAUR R/B 4.0 04:54:42 10° WNW 05:00:54 25° WSW 05:05:07 17° SSW
APEX 4.2 05:02:21 20° W 05:03:17 23° WNW 05:06:07 10° N
Cosmos 2016 Rocket 4.0 05:03:47 11° S 05:09:49 79° W 05:16:05 10° N
Cosmos 2082 Rocket 2.2 05:04:30 10° NNW 05:10:08 60° WSW 05:15:43 10° S
CZ-4B R/B 3.6 05:05:50 10° NNE 05:11:30 66° ESE 05:17:04 10° S
NAVSTAR 52 R/B(PAM-D 2.8 05:11:59 45° W 05:12:26 84° NNW 05:14:36 10° ENE
SL-16 R/B 2.9 05:07:01 10° S 05:12:49 43° W 05:18:42 10° NNW
Cosmos 1174 3.8 05:10:48 10° NW 05:13:53 33° WSW 05:16:01 15° S
Cosmos 1500 3.2 05:15:36 12° S 05:19:07 78° W 05:23:02 10° N
Cosmos 1743 3.4 05:16:14 10° S 05:19:57 54° E 05:23:42 10° NNE
Cosmos 1486 Rocket 4.0 05:14:58 10° NNW 05:20:19 77° WSW 05:25:37 10° S
Cosmos 1515 3.6 05:17:34 10° N 05:21:25 79° W 05:25:13 10° S
MOZ.5/SAFIR/RUBIN 5/SL-8 4.0 05:18:21 10° SSE 05:23:06 77° ENE 05:27:54 10° N
CZ-2D R/B 3.8 05:20:59 10° N 05:24:51 45° WNW 05:28:16 13° SW
ARIANE 5 R/B 4.0 05:21:21 10° NNW 05:25:05 22° WNW 05:28:22 12° WSW
CZ-2D R/B 3.1 05:21:09 10° N 05:25:58 32° WNW 05:30:13 13° SW
Cosmos 1725 Rocket 4.0 05:20:22 10° S 05:26:39 87° W 05:32:55 10° N
Cosmos 1346 Rocket 3.0 05:28:40 10° NNW 05:32:35 49° W 05:36:25 10° S
USA 129 2.5 05:32:30 15° SSW 05:33:47 28° W 05:35:36 10° NW
SME Rocket 4.4 05:33:47 12° SW 05:36:02 19° W 05:39:00 10° NW
Cosmos 2098 Rocket 2.8 05:33:30 10° S 05:37:05 84° W 05:41:40 10° N
CZ-2C R/B 4.0 05:35:17 10° S 05:39:54 52° W 05:44:34 10° NNW
USA 229 DEB 4.1 05:33:14 10° NNW 05:40:23 77° ENE 05:47:35 10° SE
USA 229 4.1 05:33:19 10° NNW 05:40:28 76° ENE 05:47:40 10° SE
Cosmos 1066 Rocket 4.1 05:35:28 10° NNW 05:40:54 72° W 05:46:13 10° S
SL-8 R/B 4.0 05:36:56 11° SW 05:41:31 62° SE 05:46:14 10° ENE
Cosmos 2084 3.4 05:39:27 11° SW 05:43:06 57° NW 05:46:53 10° NNE
Cosmos 1833 Rocket 3.2 05:40:16 10° NW 05:45:23 37° WSW 05:50:29 10° S
Cosmos 2285 Rocket 4.4 05:40:01 10° SW 05:46:06 51° WNW 05:52:14 10° N
Cosmos 1825 Rocket 3.5 05:43:35 10° NNW 05:47:57 71° W 05:52:19 10° S
Cosmos 1758 Rocket 4.1 05:43:51 10° N 05:48:17 67° E 05:52:44 10° SSE
BREEZE-M DEB (TANK) 3.4 05:48:54 10° W 05:51:23 31° NNW 05:54:48 10° NE
Thor Agena Rocket 3.6 05:47:07 10° S 05:52:12 58° WSW 05:57:15 10° NNW
Cosmos 1726 Rocket 3.6 05:48:00 10° S 05:52:24 77° W 05:56:49 10° N
Resurs 1-4 Rocket 3.9 05:52:30 10° NNW 05:55:43 17° WNW 05:58:56 10° WSW
